Weather History for Jonesboro, AR

Change the Weather History Date:

Tuesday, November 12, 2013

  Actual Average Record
Temperature  
Mean Temperature 45 °F 51 °F  
Max Temperature 60 °F 61 °F 82 °F (1985)
Min Temperature 29 °F 41 °F 20 °F (1976)
Degree Days  
Heating Degree Days 20 14  
Month to date heating degree days 162 140  
Since 1 July heating degree days 331 327  
Cooling Degree Days 0 0  
Month to date cooling degree days 0 1  
Year to date cooling degree days 2039 1825  
Moisture  
Dew Point 27 °F    
Average Humidity 60    
Maximum Humidity 86    
Minimum Humidity 34    
Precipitation  
Precipitation T in 0.16 in 0.68 in (2008)
Month to date precipitation 0.37 1.58  
Year to date precipitation 43.96 40.01  
Snow  
Snow 0.00 in - 0.00 in (2002)
Month to date snowfall 0.0  
Since 1 July snowfall 0.0  
Since 1 September snowfall 0.0  
Snow Depth 0.00 in    
Sea Level Pressure  
Sea Level Pressure 30.58 in    
Wind  
Wind Speed 12 mph (NNE)    
Max Wind Speed 24 mph    
Max Gust Speed 35 mph    
Visibility 10 miles    
Events Rain    
T = Trace of Precipitation, MM = Missing Value Source: NWS Daily Summary

Daily Weather History Graph

Daily Weather History Graph

Search for Another Location

Airport:

Trip Planner

Search our weather history database for the weather conditions in past years. The results will help you decide how hot, cold, wet, or windy it might be!

Date:

Astronomy

Nov. 12, 2013 Rise Set
Actual Time 6:35 AM CST 4:57 PM CST
Civil Twilight 6:08 AM CST 5:24 PM CST
Nautical Twilight 5:38 AM CST 5:54 PM CST
Astronomical Twilight 5:07 AM CST 6:25 PM CST
Moon 2:03 PM CST (11/12) 1:35 AM CST (11/12)
Length of Visible Light 11h 15m
Length of Day
10h 21m
Waxing Gibbous, 76% of the Moon is Illuminated
Nov 12
Waxing Gibbous
Nov 17
Full
Nov 25
Last Quarter
Dec 2
New
Dec 9
First Quarter

Hourly Weather History & Observations

Time (CST) Temp. Windchill Dew Point Humidity Pressure Visibility Wind Dir Wind Speed Gust Speed Precip Events Conditions
12:34 AM 53.6 °F - 48.2 °F 82% 30.29 in 10.0 mi NE 16.1 mph 26.5 mph 0.00 in   Overcast
12:53 AM 52.0 °F - 45.0 °F 77% 30.31 in 10.0 mi NNE 16.1 mph 27.6 mph 0.00 in   Overcast
1:53 AM 48.0 °F - 39.0 °F 71% 30.35 in 10.0 mi NNE 13.8 mph 23.0 mph N/A   Overcast
2:53 AM 45.0 °F 38.5 °F 37.0 °F 74% 30.40 in 10.0 mi NNE 13.8 mph 27.6 mph N/A   Overcast
3:53 AM 41.0 °F 33.1 °F 37.0 °F 86% 30.44 in 10.0 mi North 15.0 mph 24.2 mph 0.00 in   Overcast
4:11 AM 39.2 °F 31.2 °F 37.4 °F 93% 30.45 in 7.0 mi NNE 13.8 mph 25.3 mph 0.00 in Rain Light Rain
4:25 AM 39.2 °F 32.0 °F 35.6 °F 87% 30.46 in 10.0 mi NNE 11.5 mph 25.3 mph 0.00 in   Overcast
4:36 AM 39.2 °F 31.6 °F 35.6 °F 87% 30.47 in 10.0 mi North 12.7 mph 24.2 mph 0.00 in   Overcast
4:49 AM 39.2 °F 30.8 °F 35.6 °F 87% 30.48 in 10.0 mi NNE 15.0 mph 21.9 mph 0.00 in   Overcast
4:53 AM 39.9 °F 32.9 °F 34.0 °F 79% 30.48 in 10.0 mi North 11.5 mph 21.9 mph 0.00 in   Overcast
5:53 AM 39.0 °F 32.3 °F 33.1 °F 79% 30.53 in 10.0 mi NNE 10.4 mph 19.6 mph 0.00 in   Overcast
6:53 AM 37.9 °F 28.5 °F 28.9 °F 70% 30.57 in 10.0 mi NNE 17.3 mph 27.6 mph N/A   Overcast
7:18 AM 37.4 °F 27.8 °F 28.4 °F 70% 30.59 in 10.0 mi North 17.3 mph 25.3 mph N/A   Overcast
7:26 AM 37.4 °F 28.2 °F 28.4 °F 70% 30.59 in 10.0 mi North 16.1 mph 27.6 mph N/A   Overcast
7:53 AM 37.0 °F 27.4 °F 27.0 °F 67% 30.62 in 10.0 mi North 17.3 mph 29.9 mph N/A   Overcast
8:14 AM 37.4 °F 28.9 °F 26.6 °F 65% 30.63 in 10.0 mi North 13.8 mph 26.5 mph N/A   Overcast
8:53 AM 37.9 °F 29.6 °F 25.0 °F 60% 30.66 in 10.0 mi North 13.8 mph 26.5 mph N/A   Mostly Cloudy
9:53 AM 39.0 °F 29.0 °F 21.9 °F 50% 30.67 in 10.0 mi NNE 20.7 mph 32.2 mph N/A   Clear
10:53 AM 39.9 °F 31.1 °F 21.0 °F 47% 30.68 in 10.0 mi NNE 17.3 mph 26.5 mph N/A   Clear
11:53 AM 41.0 °F 34.3 °F 21.0 °F 45% 30.66 in 10.0 mi NE 11.5 mph 23.0 mph N/A   Clear
12:53 PM 43.0 °F 36.0 °F 19.9 °F 40% 30.64 in 10.0 mi NNE 13.8 mph 20.7 mph N/A   Clear
1:53 PM 42.1 °F 35.2 °F 18.0 °F 38% 30.64 in 10.0 mi NNE 12.7 mph 21.9 mph N/A   Clear
2:53 PM 43.0 °F 35.1 °F 17.1 °F 35% 30.65 in 10.0 mi NNE 17.3 mph 21.9 mph N/A   Clear
3:53 PM 41.0 °F 34.7 °F 16.0 °F 36% 30.66 in 10.0 mi North 10.4 mph - N/A   Clear
4:53 PM 37.9 °F 30.9 °F 16.0 °F 41% 30.67 in 10.0 mi NNE 10.4 mph - N/A   Clear
5:53 PM 35.1 °F 30.1 °F 18.0 °F 50% 30.68 in 10.0 mi NNE 5.8 mph - N/A   Clear
6:53 PM 33.1 °F 28.7 °F 18.0 °F 54% 30.69 in 10.0 mi NNE 4.6 mph - N/A   Clear
7:53 PM 32.0 °F 26.4 °F 18.0 °F 56% 30.69 in 10.0 mi NNE 5.8 mph - N/A   Clear
8:53 PM 30.9 °F 25.2 °F 18.0 °F 59% 30.70 in 10.0 mi NNE 5.8 mph - N/A   Clear
9:53 PM 30.0 °F 23.2 °F 18.0 °F 61% 30.71 in 10.0 mi NNE 6.9 mph - N/A   Clear
10:53 PM 30.0 °F 25.2 °F 18.0 °F 61% 30.71 in 10.0 mi NNE 4.6 mph - N/A   Clear
11:53 PM 28.9 °F 23.9 °F 18.0 °F 64% 30.71 in 10.0 mi NNE 4.6 mph - N/A   Clear